Location: Montr�al
(45.5000°N, 73.5830°W)
Time: 07:36:02
(UTC-04:00)

Cosmos 1151 Rocket - Visible Passes

Search period start: 19 April 2018 00:00
Search period end: 29 April 2018 00:00
Orbit: 592 x 616 km, 82.5° (Epoch: 18 April)

Date Brightness Start Highest point End Pass type
(mag) Time Alt. Az. Time Alt. Az. Time Alt. Az.
19 Apr 2.9 21:13:26 11° S 21:17:32 64° E 21:21:47 10° NNE visible
19 Apr 5.9 22:53:33 10° W 22:55:35 13° WNW 22:57:37 10° NW visible
20 Apr 3.1 21:26:00 10° SSW 21:30:16 77° W 21:34:34 10° N visible
21 Apr 4.0 21:38:57 10° SSW 21:43:02 46° WNW 21:47:10 10° N visible
22 Apr 5.0 21:52:11 10° SW 21:55:53 28° WNW 21:59:38 10° NNW visible
23 Apr 3.4 20:27:00 10° SSE 20:31:01 42° E 20:35:05 10° NNE visible
23 Apr 5.7 22:05:48 10° WSW 22:08:48 18° WNW 22:11:50 10° NNW visible
24 Apr 2.9 20:39:27 10° S 20:43:41 72° E 20:47:58 10° NNE visible
24 Apr 6.1 22:20:11 10° W 22:21:48 12° WNW 22:23:26 10° NW visible
25 Apr 3.4 20:52:11 10° SSW 20:56:25 69° W 21:00:43 10° N visible
26 Apr 4.4 21:05:10 10° SSW 21:09:12 41° WNW 21:13:18 10° N visible
27 Apr 5.4 21:18:29 10° SW 21:22:04 26° WNW 21:25:42 10° NNW visible
28 Apr 6.0 21:32:13 10° WSW 21:35:01 17° WNW 21:37:50 10° NNW visible
